TimeCST,TemperatureF,Dew PointF,Humidity,Sea Level PressureIn,VisibilityMPH,Wind Direction,Wind SpeedMPH,Gust SpeedMPH,PrecipitationIn,Events,Conditions,WindDirDegrees,DateUTC
12:55 AM,5.0,-0.0,80,30.02,10.0,SSE,9.2,-,N/A,,Clear,150,2013-12-16 06:55:00
1:55 AM,5.0,-0.0,80,30.02,10.0,SSE,9.2,-,N/A,,Clear,160,2013-12-16 07:55:00
2:55 AM,5.0,-0.0,80,30.02,10.0,SSE,8.1,-,N/A,,Clear,160,2013-12-16 08:55:00
3:55 AM,5.0,-0.0,80,30.00,10.0,South,10.4,-,N/A,,Clear,170,2013-12-16 09:55:00
4:55 AM,6.1,1.0,80,29.99,10.0,South,10.4,-,N/A,,Clear,170,2013-12-16 10:55:00
5:55 AM,12.0,1.9,64,29.98,10.0,South,9.2,-,N/A,,Scattered Clouds,170,2013-12-16 11:55:00
6:55 AM,23.0,3.0,42,29.99,10.0,Variable,4.6,-,N/A,,Clear,0,2013-12-16 12:55:00
7:55 AM,17.1,3.0,54,30.00,10.0,SSW,3.5,-,N/A,,Clear,200,2013-12-16 13:55:00
8:55 AM,23.0,6.1,48,30.01,10.0,SW,3.5,-,N/A,,Clear,230,2013-12-16 14:55:00
9:45 AM,17.6,6.8,63,29.98,10.0,Calm,Calm,-,N/A,,Mostly Cloudy,0,2013-12-16 15:45:00
9:55 AM,21.0,7.0,55,30.06,10.0,NE,3.5,-,N/A,,Mostly Cloudy,50,2013-12-16 15:55:00
10:55 AM,23.0,10.0,58,30.09,10.0,Calm,Calm,-,N/A,,Partly Cloudy,0,2013-12-16 16:55:00
11:55 AM,33.1,16.0,50,30.07,10.0,Calm,Calm,-,N/A,,Partly Cloudy,0,2013-12-16 17:55:00
12:55 PM,44.1,27.0,51,30.06,10.0,WNW,15.0,-,N/A,,Clear,300,2013-12-16 18:55:00
1:55 PM,41.0,26.1,55,30.06,10.0,WNW,13.8,-,N/A,,Clear,300,2013-12-16 19:55:00
2:55 PM,37.9,27.0,65,30.06,10.0,WNW,10.4,-,0.01,,Mostly Cloudy,290,2013-12-16 20:55:00
3:55 PM,37.0,27.0,67,30.09,10.0,WNW,10.4,-,N/A,,Mostly Cloudy,290,2013-12-16 21:55:00
4:55 PM,37.0,26.1,65,30.10,10.0,West,8.1,-,N/A,,Mostly Cloudy,270,2013-12-16 22:55:00
5:55 PM,44.1,25.0,47,30.09,10.0,WSW,6.9,-,N/A,,Partly Cloudy,250,2013-12-16 23:55:00
6:55 PM,37.0,25.0,62,30.09,10.0,West,10.4,-,N/A,,Overcast,260,2013-12-17 00:55:00
7:55 PM,50.0,25.0,38,30.09,10.0,WSW,8.1,-,N/A,,Overcast,240,2013-12-17 01:55:00
8:55 PM,51.1,27.0,39,30.09,10.0,WSW,8.1,-,N/A,,Mostly Cloudy,240,2013-12-17 02:55:00
9:55 PM,44.1,25.0,47,30.09,10.0,WSW,10.4,-,N/A,,Clear,250,2013-12-17 03:55:00
10:55 PM,32.0,24.1,73,30.10,10.0,West,13.8,-,N/A,,Partly Cloudy,280,2013-12-17 04:55:00
11:55 PM,30.9,23.0,72,30.10,10.0,West,12.7,-,N/A,,Scattered Clouds,280,2013-12-17 05:55:00